[Iaude] MPEC S211: 2014 VU1 [a=2.02,e=0.36,i=21.1,H=18.4]

mpec at mpcdb1.cfa.harvard.edu mpec at mpcdb1.cfa.harvard.edu
Thu Sep 28 23:45:16 EDT 2017


M.P.E.C. 2017-S211                               Issued 2017 Sept. 29, 03:42 UT
 
     The Minor Planet Electronic Circulars contain information on unusual
         minor planets and routine data on comets.  They are published
    on behalf of Division F of the International Astronomical Union by the
          Minor Planet Center, Smithsonian Astrophysical Observatory,
                          Cambridge, MA 02138, U.S.A.

             Prepared using the Tamkin Foundation Computer Network

                              MPC at CFA.HARVARD.EDU
            URL http://www.minorplanetcenter.net/    ISSN 1523-6714


                                   2014 VU1
 
Additional Observations:
     K14V01U  C2017 09 27.48203 05 37 38.97 +02 52 27.3          20.6 VqES211G96
     K14V01U  C2017 09 27.48551 05 37 39.44 +02 52 31.4          20.3 VqES211G96
     K14V01U  C2017 09 27.48895 05 37 39.87 +02 52 35.9          20.5 VqES211G96
     K14V01U  C2017 09 27.49237 05 37 40.31 +02 52 40.7          20.4 VqES211G96
     K14V01U  C2017 09 28.41115 05 39 42.42 +03 12 52.9          19.6 RoES211926
     K14V01U  C2017 09 28.41940 05 39 43.51 +03 13 04.2          19.8 RoES211926
 
Observer details:
926 Tenagra II Observatory.  Observers M. Schwartz, P. R. Holvorcem.  Measurer
    M. Schwartz.  0.81-m f/7 Ritchey-Chretien + CCD.
G96 Mt. Lemmon Survey.  Observer R. G. Matheny.  Measurers E. J. Christensen,
    D. C. Fuls, A. R. Gibbs, A. D. Grauer, J. A. Johnson, R. A. Kowalski,
    S. M. Larson, G. J. Leonard, R. G. Matheny, R. L. Seaman, F. C. Shelly.
    1.5-m reflector + 10K CCD.
 
First and last observations above in comparison with prediction:
Residuals in seconds of arc (or two decimals in degrees), reference and Delta-T
170927 G96 1.59+ 1.72+    170928 926 1.61+ 1.72+    MPO343672   -1.9 day
 
Orbital elements:
2014 VU1                                                 Earth MOID = 0.3285 AU
Epoch 2017 Sept. 4.0 TT = JDT 2458000.5                 MPC
M 350.53523              (2000.0)            P               Q
n   0.34440427     Peri.  332.97814     +0.79502302     -0.51721730
a   2.0156898      Node    61.75483     +0.60095513     +0.60063613
e   0.3577820      Incl.   21.08371     +0.08240952     +0.60969050
P   2.86           H   18.4           G   0.15           U   2
Residuals in seconds of arc
141109 F51  0.0   0.1+    141111 W87  0.2+  0.3-    141112 711  0.1+  0.1-
141109 F51  0.1-  0.0     141111 W87  0.1+  0.0     141112 711  0.1+  0.1+
141109 F51  0.3-  0.1+    141111 W87  0.2+  0.2-    141209 F51  0.1-  0.0
141109 F51  0.1-  0.0     141111 W87  0.1+  0.2-    141209 F51  0.0   0.1+
141110 D90  0.5+  0.2-    141111 807  0.0   0.0     141209 F51  0.0   0.1-
141110 D90  0.2+  0.0     141111 807  0.0   0.1+    170927 G96  0.2-  0.3+
141110 D90  0.1+  0.6+    141111 807  0.1+  0.1-    170927 G96  0.1+  0.2-
141111 W87  0.2+  0.4-    141112 807  0.1+  0.0     170927 G96  0.0   0.2-
141111 W87  0.2+  0.3-    141112 807  0.1+  0.1+    170927 G96  0.0   0.1+
141111 W87  0.1+  0.1-    141112 807  0.0   0.1-    170928 926  0.2-  0.2-
141111 W87  0.2+  0.2-    141112 711  0.0   0.5+    170928 926  0.3+  0.1+
141111 W87  0.1+  0.3-    141112 711  0.1+  0.3+

Ephemeris:
2014 VU1                 a,e,i = 2.02, 0.36, 21                  q = 1.2945
Date    TT    R. A. (2000) Decl.     Delta      r     Elong.  Phase     V
2017 08 30    04 28 20.5 -05 42 36   0.8245  1.3270    92.1    49.5    20.4
...
2017 09 14    05 06 14.0 -01 34 35   0.7409  1.3041    95.4    50.2    20.2
...
2017 09 22    05 25 13.6 +00 57 42   0.6981  1.2973    97.7    50.1    20.0
...
2017 09 28    05 38 47.5 +03 03 54   0.6669  1.2949    99.8    49.7    19.9
2017 09 29    05 40 59.4 +03 26 05   0.6618  1.2947   100.2    49.6    19.9
2017 09 30    05 43 10.2 +03 48 37   0.6567  1.2946   100.6    49.5    19.9
...
2017 10 06    05 55 50.9 +06 11 43   0.6269  1.2952   103.1    48.7    19.8
...
2017 10 14    06 11 31.4 +09 46 12   0.5890  1.2994   107.2    47.2    19.6
...
2017 10 29    06 35 49.8 +17 56 20   0.5270  1.3180   116.8    42.3    19.3

A. U. Tomatic                (C) Copyright 2017 MPC           M.P.E.C. 2017-S211




More information about the Iaude mailing list